Location: Nashville
(36.1660°N, 86.7840°W)
Time: 12:20:05
(UTC-05:00)

First-Move - Visible Passes

Search period start: 17 May 2022 00:00
Search period end: 27 May 2022 00:00
Orbit: 572 x 662 km, 97.6° (Epoch: 17 May)

Date Brightness Start Highest point End Pass type
(mag) Time Alt. Az. Time Alt. Az. Time Alt. Az.
17 May ? 04:59:42 10° N 05:03:47 80° WNW 05:07:50 10° SSW visible
18 May ? 03:43:04 10° E 03:43:42 10° E 03:44:20 10° E visible
19 May ? 03:57:28 10° NE 04:00:06 17° E 04:02:44 10° SE visible
20 May ? 04:13:02 10° NE 04:16:28 26° E 04:19:53 10° SSE visible
21 May ? 04:28:56 10° NNE 04:32:47 41° E 04:36:39 10° S visible
22 May ? 04:45:01 10° NNE 04:49:04 67° ESE 04:53:07 10° S visible
23 May ? 05:01:13 10° N 05:05:17 75° WNW 05:09:22 10° SSW visible
24 May ? 03:43:57 10° ENE 03:45:11 11° E 03:46:26 10° ESE visible
25 May ? 03:58:44 10° NE 04:01:31 18° E 04:04:20 10° SE visible
26 May ? 04:14:18 10° NE 04:17:49 27° E 04:21:21 10° SSE visible
